Lordsburg, NM

10:08 PM MDT on October 23, 2017 (GMT -0600)
Lordsburg

Weather History for KLSB - January, 2013

Change the Weather History Date:

Monday, January 28, 2013

  Actual Average Record
Temperature  
Mean Temperature 46 °F -  
Max Temperature 60 °F 62 °F 68 °F (2015)
Min Temperature 33 °F 25 °F 19 °F (2016)
Degree Days  
Heating Degree Days 18    
Moisture  
Dew Point 38 °F    
Average Humidity 70    
Maximum Humidity 100    
Minimum Humidity 42    
Precipitation  
Precipitation 0.41 in - - ()
Sea Level Pressure  
Sea Level Pressure 29.94 in    
Wind  
Wind Speed 13 mph (SW)    
Max Wind Speed 28 mph    
Max Gust Speed 37 mph    
Visibility 8 miles    
Events Rain , Snow    
Averages and records for this station are not official NWS values.
T = Trace of Precipitation, MM = Missing Value Source: NWS Daily Summary

Daily Weather History Graph

Daily Weather History Graph

Search for Another Location

Airport or City:

Trip Planner

Search our weather history database for the weather conditions in past years. The results will help you decide how hot, cold, wet, or windy it might be!

Date:

Astronomy

Jan. 28, 2013 Rise Set
Actual Time 7:14 AM MST 5:41 PM MST
Civil Twilight 6:48 AM MST 6:07 PM MST
Nautical Twilight 6:18 AM MST 6:37 PM MST
Astronomical Twilight 5:48 AM MST 7:07 PM MST
Moon 7:31 PM MST (1/28) 7:48 AM MST (1/28)
Length of Visible Light 11h 19m
Length of Day
10h 26m
Full, 97% of the Moon is Illuminated
Jan 28
Full
Feb 3
Last Quarter
Feb 10
New
Feb 17
First Quarter
Feb 25
Full

Hourly Weather History & Observations

Time (MST) Temp. Windchill Dew Point Humidity Pressure Visibility Wind Dir Wind Speed Gust Speed Precip Events Conditions
12:15 AM 46.4 °F 43.5 °F 41.0 °F 81% 29.99 in 10.0 mi SSW 5.8 mph - N/A   Overcast
12:35 AM 51.8 °F - 41.0 °F 67% 29.99 in 10.0 mi SW 10.4 mph - N/A   Overcast
12:55 AM 50.0 °F - 41.0 °F 71% 29.99 in 10.0 mi SSW 10.4 mph - N/A   Mostly Cloudy
1:15 AM 50.0 °F - 41.0 °F 71% 29.98 in 10.0 mi SSW 9.2 mph - N/A   Scattered Clouds
1:35 AM 50.0 °F - 41.0 °F 71% 29.98 in 10.0 mi SSW 8.1 mph - N/A   Mostly Cloudy
1:55 AM 50.0 °F - 41.0 °F 71% 29.98 in 10.0 mi SSW 9.2 mph - N/A   Overcast
2:15 AM 51.8 °F - 41.0 °F 67% 29.97 in 10.0 mi SSW 9.2 mph - N/A   Overcast
2:35 AM 51.8 °F - 41.0 °F 67% 29.97 in 10.0 mi SSW 9.2 mph - N/A   Overcast
2:55 AM 50.0 °F - 41.0 °F 71% 29.97 in 10.0 mi SSW 11.5 mph 17.3 mph N/A   Overcast
3:15 AM 50.0 °F - 41.0 °F 71% 29.97 in 10.0 mi SSW 8.1 mph - N/A   Overcast
3:35 AM 50.0 °F - 41.0 °F 71% 29.97 in 10.0 mi SSW 12.7 mph 16.1 mph N/A   Overcast
3:55 AM 50.0 °F - 42.8 °F 76% 29.97 in 10.0 mi SSW 9.2 mph - N/A   Overcast
4:15 AM 50.0 °F - 42.8 °F 76% 29.95 in 10.0 mi SSW 11.5 mph - N/A   Mostly Cloudy
4:35 AM 50.0 °F - 42.8 °F 76% 29.96 in 10.0 mi NNW 3.5 mph - N/A   Overcast
4:55 AM 50.0 °F - 41.0 °F 71% 29.95 in 10.0 mi Calm Calm - N/A   Overcast
5:15 AM 50.0 °F - 41.0 °F 71% 29.95 in 10.0 mi SW 13.8 mph - N/A   Mostly Cloudy
5:35 AM 50.0 °F - 41.0 °F 71% 29.95 in 10.0 mi SSW 15.0 mph 21.9 mph N/A   Overcast
5:55 AM 50.0 °F - 41.0 °F 71% 29.95 in 10.0 mi SSW 16.1 mph 23.0 mph N/A   Mostly Cloudy
6:15 AM 50.0 °F - 41.0 °F 71% 29.95 in 10.0 mi SSW 15.0 mph 20.7 mph N/A   Scattered Clouds
6:35 AM 50.0 °F - 39.2 °F 66% 29.95 in 10.0 mi SSW 16.1 mph 20.7 mph N/A   Scattered Clouds
6:55 AM 50.0 °F - 39.2 °F 66% 29.95 in 10.0 mi SSW 18.4 mph 23.0 mph N/A   Scattered Clouds
7:15 AM 50.0 °F - 39.2 °F 66% 29.96 in 10.0 mi SSW 15.0 mph 21.9 mph N/A   Scattered Clouds
7:35 AM 50.0 °F - 39.2 °F 66% 29.97 in 10.0 mi SSW 17.3 mph 26.5 mph N/A   Mostly Cloudy
7:55 AM 50.0 °F - 37.4 °F 62% 29.97 in 10.0 mi SSW 20.7 mph 26.5 mph N/A   Mostly Cloudy
8:15 AM 50.0 °F - 37.4 °F 62% 29.97 in 10.0 mi SSW 19.6 mph 26.5 mph N/A   Scattered Clouds
8:35 AM 51.8 °F - 37.4 °F 58% 29.97 in 10.0 mi SSW 20.7 mph 27.6 mph N/A   Clear
8:55 AM 51.8 °F - 37.4 °F 58% 29.97 in 10.0 mi SSW 19.6 mph 31.1 mph N/A   Scattered Clouds
9:15 AM 53.6 °F - 37.4 °F 54% 29.97 in 10.0 mi SSW 23.0 mph 29.9 mph N/A   Scattered Clouds
9:35 AM 53.6 °F - 37.4 °F 54% 29.97 in 10.0 mi SSW 19.6 mph 25.3 mph N/A   Mostly Cloudy
9:55 AM 55.4 °F - 37.4 °F 51% 29.97 in 10.0 mi SSW 21.9 mph 25.3 mph N/A   Scattered Clouds
10:15 AM 55.4 °F - 37.4 °F 51% 29.97 in 10.0 mi South 17.3 mph 24.2 mph N/A   Scattered Clouds
10:35 AM 55.4 °F - 37.4 °F 51% 29.97 in 10.0 mi South 16.1 mph 23.0 mph N/A   Mostly Cloudy
10:55 AM 59.0 °F - 37.4 °F 45% 29.95 in 10.0 mi SSW 17.3 mph 24.2 mph N/A   Mostly Cloudy
11:35 AM 59.0 °F - 37.4 °F 45% 29.95 in 10.0 mi SSW 21.9 mph 32.2 mph N/A   Mostly Cloudy
11:55 AM 59.0 °F - 37.4 °F 45% 29.94 in 10.0 mi SSW 20.7 mph 29.9 mph N/A   Mostly Cloudy
12:15 PM 59.0 °F - 37.4 °F 45% 29.92 in 10.0 mi SSW 25.3 mph 32.2 mph N/A   Mostly Cloudy
12:35 PM 60.8 °F - 37.4 °F 42% 29.91 in 10.0 mi SW 21.9 mph 31.1 mph N/A   Scattered Clouds
12:55 PM 59.0 °F - 37.4 °F 45% 29.90 in 10.0 mi SSW 20.7 mph 29.9 mph N/A   Mostly Cloudy
1:15 PM 60.8 °F - 37.4 °F 42% 29.89 in 10.0 mi SSW 24.2 mph 33.4 mph N/A   Mostly Cloudy
1:35 PM 59.0 °F - 37.4 °F 45% 29.89 in 10.0 mi SSW 27.6 mph 36.8 mph N/A   Mostly Cloudy
1:55 PM 59.0 °F - 37.4 °F 45% 29.88 in 10.0 mi SW 25.3 mph 34.5 mph N/A   Mostly Cloudy
2:15 PM 57.2 °F - 39.2 °F 51% 29.88 in 10.0 mi WSW 17.3 mph - N/A   Mostly Cloudy
2:35 PM 55.4 °F - 37.4 °F 51% 29.89 in 10.0 mi SSW 27.6 mph 32.2 mph N/A   Overcast
2:55 PM 55.4 °F - 37.4 °F 51% 29.88 in 10.0 mi SSW 21.9 mph 29.9 mph N/A   Scattered Clouds
3:15 PM 55.4 °F - 37.4 °F 51% 29.88 in 10.0 mi North - - N/A   Mostly Cloudy
3:35 PM 55.4 °F - 39.2 °F 54% 29.89 in 10.0 mi SW 19.6 mph 26.5 mph N/A   Scattered Clouds
3:55 PM 55.4 °F - 37.4 °F 51% 29.89 in 10.0 mi SSW 24.2 mph 34.5 mph N/A   Mostly Cloudy
4:15 PM 53.6 °F - 35.6 °F 51% 29.89 in 10.0 mi SW 20.7 mph 32.2 mph N/A   Scattered Clouds
4:35 PM 50.0 °F - 37.4 °F 62% 29.90 in 10.0 mi WNW 10.4 mph 27.6 mph N/A   Mostly Cloudy
4:55 PM 50.0 °F - 41.0 °F 71% 29.90 in 10.0 mi West 18.4 mph 21.9 mph N/A   Drizzle
5:15 PM 46.4 °F 41.9 °F 42.8 °F 87% 29.90 in 3.0 mi West 9.2 mph - 0.02 in Rain Rain
5:35 PM 46.4 °F 44.3 °F 42.8 °F 87% 29.90 in 5.0 mi WSW 4.6 mph - 0.03 in   Drizzle
5:55 PM 42.8 °F 35.8 °F 41.0 °F 93% 29.92 in 2.5 mi SW 13.8 mph 25.3 mph 0.09 in Rain Rain
6:15 PM 44.6 °F 37.4 °F 41.0 °F 87% 29.91 in 5.0 mi WSW 16.1 mph 25.3 mph 0.01 in Rain Light Rain
6:35 PM 44.6 °F 37.4 °F 39.2 °F 81% 29.92 in 7.0 mi SW 16.1 mph 21.9 mph 0.04 in Rain Light Rain
6:55 PM 42.8 °F 36.2 °F 39.2 °F 87% 29.91 in 10.0 mi West 12.7 mph 19.6 mph 0.04 in   Mostly Cloudy
7:15 PM 42.8 °F 35.4 °F 39.2 °F 87% 29.91 in 10.0 mi WNW 15.0 mph - N/A Rain Light Rain
7:35 PM 41.0 °F 32.5 °F 39.2 °F 93% 29.93 in 5.0 mi WNW 17.3 mph 21.9 mph N/A Rain Rain
7:55 PM 37.4 °F 28.5 °F 35.6 °F 93% 29.94 in 3.0 mi WNW 15.0 mph 24.2 mph 0.04 in Snow Light Snow
8:15 PM 37.4 °F 28.2 °F 35.6 °F 93% 29.93 in 5.0 mi NW 16.1 mph - N/A   Overcast
8:35 PM 35.6 °F 29.2 °F 33.8 °F 93% 29.94 in 3.0 mi NW 8.1 mph - 0.03 in Snow Light Snow
8:55 PM 33.8 °F 26.4 °F 33.8 °F 100% 29.95 in 1.0 mi NW 9.2 mph - 0.08 in Snow Snow
9:15 PM 33.8 °F 27.7 °F 33.8 °F 100% 29.95 in 1.0 mi NW 6.9 mph - 0.04 in Snow Snow
9:35 PM 33.8 °F 27.0 °F 33.8 °F 100% 29.95 in 0.8 mi NW 8.1 mph - 0.08 in Snow Snow
9:55 PM 33.8 °F 30.8 °F 33.8 °F 100% 29.95 in 1.0 mi WNW 3.5 mph - 0.11 in Snow Snow
10:15 PM 33.8 °F 30.8 °F 33.8 °F 100% 29.95 in 0.8 mi NW 3.5 mph - 0.03 in Snow Snow
10:35 PM 33.8 °F 30.8 °F 33.8 °F 100% 29.95 in 3.0 mi West 3.5 mph - 0.04 in Snow Light Snow
10:55 PM 33.8 °F - 33.8 °F 100% 29.95 in 5.0 mi Calm Calm - 0.05 in Snow Light Snow
11:15 PM 33.8 °F - 33.8 °F 100% 29.95 in 7.0 mi Calm Calm - N/A   Overcast
11:35 PM 33.8 °F - 33.8 °F 100% 29.97 in 4.0 mi Calm Calm - N/A Snow Light Snow
11:55 PM 33.8 °F 25.8 °F 33.8 °F 100% 29.95 in 4.0 mi NNW 10.4 mph - N/A Snow Light Snow